Regional Weather Roundup
Issued by NWS

Home | Current Version | Previous Version | Text Only | Print | Product List | Glossary Off
Versions: 1 2 3 4 5 6 7 8 9 10 11 12 13 14 15 16 17 18 19 20 21 22 23 24 25 26 27 28 29 30 31 32 33 34 35 36 37 38 39 40 41 42 43 44 45 46 47 48 49 50

746
ASUS45 KBOI 281910
RWRID

IDAHO REGIONAL WEATHER ROUNDUP
NATIONAL WEATHER SERVICE BOISE ID
100 PM MDT SAT MAY 28 2016

NOTE: "FAIR" INDICATES FEW OR NO CLOUDS BELOW 12000 FEET
WITH NO SIGNIFICANT WEATHER AND/OR OBSTRUCTIONS TO VISIBILITY

IDZ012-014-282000-
SOUTHWEST IDAHO


CITY           SKY/WX    TMP DP  RH WIND       PRES   REMARKS
BOISE          SUNNY     63  29  27 N10G20    30.08F
CALDWELL       SUNNY     64  33  31 NW8       30.09F
MOUNTAIN HOME  SUNNY     68  36  31 NW8G22    30.07S
$$

IDZ016-017-282000-
SOUTHCENTRAL IDAHO


CITY           SKY/WX    TMP DP  RH WIND       PRES   REMARKS
BURLEY         SUNNY     61  33  35 W8        30.08S
JEROME         SUNNY     61  30  31 W10G20    30.09F
TWIN FALLS     SUNNY     61  31  32 W10       30.10S
$$

IDZ019>023-282000-
SOUTHEAST IDAHO


CITY           SKY/WX    TMP DP  RH WIND       PRES   REMARKS
IDAHO FALLS    MOSUNNY   60  30  32 SW20G28   30.07S
POCATELLO      SUNNY     62  28  27 SW17G24   30.09S
REXBURG        SUNNY     58  34  40 SW12G21   30.07R
$$

IDZ006-010-011-018-031-032-282000-
CENTRAL IDAHO MOUNTAINS


CITY           SKY/WX    TMP DP  RH WIND       PRES   REMARKS
MCCALL         SUNNY     52  30  43 CALM      30.07S
HAILEY         SUNNY     57  28  33 SW12      30.07
STANLEY          N/A     54  23  30 NW9       30.08F
SALMON         CLOUDY    57  36  44 N7        30.01S
CHALLIS        MOSUNNY   60  23  24 NE6       30.01F
$$

IDZ002-004-006-007-026-282000-
NORTHERN IDAHO


CITY           SKY/WX    TMP DP  RH WIND       PRES   REMARKS
LEWISTON       SUNNY     64  39  39 VRB5      30.06F
LOWELL           N/A     65  36  34 S3        30.05F
COEUR D`ALENE  CLOUDY    55  36  47 W6        30.05S
MULLAN PASS    CLOUDY    38  28  67 MISG      30.07R
$$




USA.gov is the U.S. government's official web portal to all federal, state and local government web resources and services.